WGS F8 (USA 272)

Last updated on Nov. 18, 2019, 4:21 a.m. UTC

1 41879U 16075A   19321.53596543 -.00000196  00000-0  00000+0 0  9990
2 41879   0.0140 317.9886 0000168 103.6186 337.4838  1.00269445 10826
UTC
Height (km)
Latitude
Longitude
Inclination
Orbital Period
UTC large
Height (km)
Speed (km/s)
/
Latitude / Longitude
Inclination (degrees)
Orbital Period (minutes)
Azimuth
Elevation
Range (km)
Doppler Factor
iOS Compass Heading
iOS Angle

Next 30 passes for location: Hong Kong

Rise time Rise Azimuth (degrees) Set time Set Azimuth (degrees) Duration Max altitude (degrees)

No matching passes for this satellites